Preview of NWS' New Version of Forecast
This preview is not operational and should not be used for support decisions.

Regional Weather Roundup (RWR)

Issued by National Weather Service (NWS)

                            
000
ASUS42 KTBW 231418
RWRFL 
FLORIDA REGIONAL WEATHER ROUNDUP
NATIONAL WEATHER SERVICE TAMPA BAY RUSKIN FL
1000 AM EDT MON SEP 23 2019

NOTE: "FAIR" INDICATES FEW OR NO CLOUDS BELOW 12,000 FEET WITH NO
SIGNIFICANT WEATHER AND/OR OBSTRUCTIONS TO VISIBILITY.

FLZ001>010-012>015-112-114-115-231500-
PANHANDLE FLORIDA
  
CITY           SKY/WX    TMP DP  RH WIND       PRES   REMARKS
PENSACOLA      FAIR      80  71  74 NE9       30.11R                  
PENSACOLA NAS  FAIR      79  70  74 N5        30.10R                  
MILTON NAS     FAIR      78  68  71 N5        30.12R                  
CRESTVIEW      FAIR      75  65  70 E5        30.14R                  
DUKE FIELD     FAIR      76  66  72 NE6       30.12R                  
PANAMA CITY    FAIR      80  68  66 NE7       30.11R                  
TYNDALL AFB    FAIR      77  68  73 NE7       30.10R                  
APALACHICOLA   CLOUDY    78  71  79 NE5       30.11R                  

STATION/POSITION SKY/WX   TEMP    WIND        PRES    WAVE   SWELL
                          AIR SEA DIR/SP/G            HT/PER HT/PER
                          (F)     (DEG/KT/KT) (MB)    (FT/S) (FT/S)
30.1N   87.6W              80 83   50/ 12/ 14 1019.2R   3/ 6   2/ 6
29.2N   88.2W              82     110/ 10/ 12 1018.9
28.8N   86.0W                 83  100/ 10/ 14 1018.6R   2/ 6   2/ 6
PANAMA CITY BEAC           76 84   60/  9/ 12 1020.1R
TOWER C                    80      70/ 15/ 17 1019.6R
28.5N   84.5W              81      60/  8/ 12 1019.4R   3/ 5   2/ 5

$$
FLZ011-016>038-118-127-128-134-139-239-231500-
NORTH FLORIDA
  
CITY           SKY/WX    TMP DP  RH WIND       PRES   REMARKS
MARIANNA       FAIR      79  68  69 NE3       30.11S                  
TALLAHASSEE    PTSUNNY   77  69  76 E3        30.12R                  
PERRY          FAIR      79  71  76 CALM      30.11S                  
LIVE OAK       SUNNY     79  68  69 CALM      30.11R                  
CROSS CITY       N/A     78  69  74 NE6       30.10S                  
LAKE CITY      FAIR      77  64  65 E5        30.12R                  
GAINESVILLE    FAIR      80  67  64 NE7       30.12S                  
WILLISTON      FAIR      79  68  67 NE6       30.10S                  
PALATKA        FAIR      77  66  69 NE8       30.10R                  
MAYPORT NAS    FAIR      82  65  56 NE9       30.10R                  
JACKSONVILLE   FAIR      80  67  64 N6        30.10S                  
JAX NAS        FAIR      80  66  62 N8        30.11R                  
JAX CECIL      SUNNY     82  66  57 N5        30.10S                  
FERNANDINA BEA FAIR      80  69  69 N5        30.10S                  
ST AUGUSTINE   FAIR     N/A N/A N/A NE12      30.10S                  
PALM COAST     SUNNY     81  64  57 NE12      30.08R                  

STATION/POSITION SKY/WX   TEMP    WIND        PRES    WAVE   SWELL
                          AIR SEA DIR/SP/G            HT/PER HT/PER
                          (F)     (DEG/KT/KT) (MB)    (FT/S) (FT/S)
SHELL POINT      NOT AVBL
KEATON BEACH               78      60/  2/  3 1019.6S
CEDAR KEY                  76      60/  4/  5 1019.3R
FERNANDINA                        340/  3/  8   N/A
30.7N   81.3W                 80                N/A     3/13   2/13
MAYPORT                    79 81   40/  8/  9 1019.7R
31.4N   80.9W              79 81   40/  4/  6 1019.4S   4/12   3/12
ST AUGUSTINE               80 80   40/  9/ 10 1019.1R

$$
FLZ040-043>046-052-053-057-058-063-144-231500-
INTERIOR CENTRAL FLORIDA
  
CITY           SKY/WX    TMP DP  RH WIND       PRES   REMARKS
OCALA          FAIR      79  67  66 NE7       30.10R                  
LEESBURG       FAIR      81  65  58 NE12      30.08S                  
SANFORD        FAIR      81  66  60 N9        30.06S                  
ORLANDO EXEC   PTSUNNY   81  65  58 NE7       30.07R                  
ORLANDO INTL   PTSUNNY   77  66  68 N8        30.06S                  
KISSIMMEE      CLOUDY    78  67  68 VRB5      30.07S                  
WINTER HAVEN   PTSUNNY   81  66  60 N9        30.07                   
LAKELAND       MOSUNNY   79  64  61 CALM      30.07S                  
BARTOW         MOSUNNY   81  66  61 NE9       30.06R                  
SEBRING        FAIR      80  67  65 NE6       30.05S                  
OKEECHOBEE     CLOUDY    77  68  73 NE5       30.03R                  

$$
FLZ041-047-054-059-064-141-147-231500-
EAST CENTRAL FLORIDA
  
CITY           SKY/WX    TMP DP  RH WIND       PRES   REMARKS
ORMOND BEACH   SUNNY     81  64  57 N9        30.07S                  
DAYTONA BEACH  PTSUNNY   81  65  58 NE13      30.07R                  
DELAND         PTSUNNY   79  66  65 N7        30.07R                  
NEW SMYRNA BEA PTSUNNY   81  64  57 NE10      30.07S                  
TITUSVILLE     MOSUNNY   84  66  54 NE10      30.06R                  
CAPE CANAVERAL FAIR      82  68  63 E8        30.04                   
PATRICK AFB    FAIR      82  65  54 NE10      30.04S                  
MELBOURNE      FAIR      84  62  47 NE12      30.04R                  
VERO BEACH     FAIR      84  64  50 NE14      30.03R                  
FT PIERCE      CLOUDY    80  65  59 NE9       30.02R                  
STUART         MOSUNNY   82  64  54 E12       30.03R                  

STATION/POSITION SKY/WX   TEMP    WIND        PRES    WAVE   SWELL
                          AIR SEA DIR/SP/G            HT/PER HT/PER
                          (F)     (DEG/KT/KT) (MB)    (FT/S) (FT/S)
28.5N   80.2W              80 82   60/ 12/ 16 1017.9R   6/ 8   5/ 8
28.9N   78.5W              79 80   50/ 16/ 19 1017.9R   8/12   7/12
TRIDENT PIER               81 81   50/  8/ 11 1018.7R
28.4N   80.5W                 81                N/A     4/13   2/13
27.5N   80.2W                 81                N/A     5/13   3/13

$$
FLZ050-056-061-142-242-148-248-149-249-151-251-155-255-
160-260-231500-
WEST CENTRAL FLORIDA
  
CITY           SKY/WX    TMP DP  RH WIND       PRES   REMARKS
CRYSTAL RIVER  FAIR      79  64  61 NE9       30.09S                  
INVERNESS      FAIR      79  66  65 NE7       30.09S                  
BROOKSVILLE    FAIR      79  65  62 NE9       30.08S                  
CLEARWATER AIR FAIR      77  64  65 N8        30.07S                  
ST PETE CLEARW FAIR      80  66  62 N9        30.07R                  
TAMPA INTL     FAIR      80  64  58 N8        30.07S                  
TAMPA EXEC     FAIR      77  68  73 CALM      30.08R                  
PLANT CITY     FAIR      79  70  73 NE8       30.09S                  
MACDILL AFB    FAIR      80  66  62 NE8       30.06                   
PETER O KNIGHT CLOUDY    81  68  65 NE9       30.07S                  
ST PETERSBURG  FAIR      78  67  68 NE14      30.05S                  
SARASOTA       FAIR      82  66  58 NE7       30.04R                  
VENICE         FAIR      81  68  65 NE12      30.05S                  

STATION/POSITION SKY/WX   TEMP    WIND        PRES    WAVE   SWELL
                          AIR SEA DIR/SP/G            HT/PER HT/PER
                          (F)     (DEG/KT/KT) (MB)    (FT/S) (FT/S)
27.3N   84.2W                 84                N/A     4/ 6
CLEARWATER BEACH           77 82   40/  9/ 11 1018.5R
MIDDLE TAMPA BAY           76      60/ 12/ 14 1018.1S
VENICE                     77 83   20/ 10/ 11 1017.4R

$$
FLZ066-069-070-075>078-162-262-165-265-231500-
SOUTHWEST FLORIDA AND KEYS
  
CITY           SKY/WX    TMP DP  RH WIND       PRES   REMARKS
PUNTA GORDA    FAIR      79  68  69 NE12      30.06R                  
FT MYERS       FAIR      81  67  62 NE8       30.02R                  
SOUTHWEST INTL FAIR      80  68  66 NE9       30.03R                  
NAPLES         FAIR      82  68  62 E13       30.01R                  
MARCO ISLAND   FAIR      81  67  62 NE9       30.02R                  
IMMOKALEE      FAIR      81  68  65 NE12G17   30.01R                  
MARATHON       FAIR      81  74  79 NE15      29.95S                  
KEY WEST NAS   FAIR      83  72  69 NE18G26   29.95S                  
KEY WEST INTL  FAIR      82  73  74 NE13G22   29.95S                  

STATION/POSITION SKY/WX   TEMP    WIND        PRES    WAVE   SWELL
                          AIR SEA DIR/SP/G            HT/PER HT/PER
                          (F)     (DEG/KT/KT) (MB)    (FT/S) (FT/S)
NAPLES                     78 81   50/  8/ 12 1016.2R
26.0N   85.6W              82 85   70/ 16/ 21 1016.9R   5/ 7
DRY TORTUGAS               81      70/ 23/ 25 1014.8R
SAND KEY                   80      60/ 23/ 27 1012.4S
SOMBRERO KEY               80      30/ 18/ 21   N/A
LONG KEY                   80                 1013.3

$$
FLZ067-068-071>074-168-172>174-231500-
SOUTHEAST FLORIDA 
  
CITY           SKY/WX    TMP DP  RH WIND       PRES   REMARKS
W PALM BEACH   FAIR      83  64  52 NE13G20   30.02R                  
BOCA RATON     MOSUNNY   84  66  54 NE17      30.00R                  
FT LAUDER-EXEC FAIR      84  66  54 NE12G21   29.99R                  
FT LAUDERDALE  FAIR      83  67  58 NE14G21   29.98R                  
POMPANO BEACH  FAIR      84  67  56 NE15G22   30.00R                  
PEMBROKE PINES FAIR      86  67  52 NE15      30.01R                  
OPA LOCKA      FAIR      82  68  62 NE12      29.99R                  
MIAMI          PTSUNNY   84  68  58 E15G21    29.99R                  
WEST KENDALL   FAIR      83  71  67 E12       29.98R                  
HOMESTEAD      FAIR      83  72  70 NE15      29.97R                  

STATION/POSITION SKY/WX   TEMP    WIND        PRES    WAVE   SWELL
                          AIR SEA DIR/SP/G            HT/PER HT/PER
                          (F)     (DEG/KT/KT) (MB)    (FT/S) (FT/S)
VIRGINIA KEY               81 81   20/  7/ 12 1014.7
LAKE WORTH                 80 81   50/ 14/ 17 1017.1R
FOWEY ROCKS                81 82   50/ 18/ 20 1015.3R
SETTLEMENT POINT           78      40/ 16/ 18 1016.0R

$$